Wind_Speed
34 34 34 33 32 31 30 30 28 27 26 27 26 25 24 25 24 23 22 22 24 24 24 23 24 24 24 23 23 22 21 21 19 19 19 18 17 17 17 16 15 14 13
36 35 34 35 34 33 33 31 31 30 28 28 28 27 26 25 24 24 23 23 23 24 24 24 23 23 24 24 24 24 24 24 22 22 22 21 19 20 19 18 17 16 15
36 36 36 35 34 34 34 33 32 31 30 29 28 28 27 27 25 24 24 24 24 24 24 23 23 22 22 23 24 24 24 25 24 23 24 24 22 22 22 21 20 19 18
37 37 37 36 36 34 34 34 34 31 31 30 29 28 27 27 26 25 25 24 24 24 23 21 22 22 22 22 23 23 24 25 25 24 24 26 25 25 25 24 23 22 21
38 38 37 36 35 34 33 33 34 32 31 31 31 31 29 27 26 26 25 24 24 23 23 22 21 21 22 21 22 22 22 23 24 23 24 25 25 26 26 27 26 25 24
39 39 38 37 35 33 32 33 33 32 32 33 33 32 30 28 27 26 25 24 23 22 22 22 21 21 21 21 20 20 21 21 22 22 22 24 25 25 26 27 28 28 26
40 39 38 37 35 34 33 32 32 33 33 32 32 31 30 29 28 26 25 24 23 22 22 22 22 21 21 19 19 19 19 21 21 21 21 21 23 24 26 26 28 29 30
40 39 38 37 34 33 32 31 30 32 32 32 32 31 30 29 29 28 27 26 25 24 24 23 22 21 20 19 19 18 18 19 19 19 19 20 21 21 23 26 27 29 30
40 39 38 36 35 34 33 32 30 30 31 32 32 31 29 29 30 30 28 28 27 26 26 25 23 22 21 19 18 17 17 17 17 17 18 19 19 20 21 23 25 27 28
41 40 39 38 37 36 35 34 33 32 31 32 33 33 32 31 31 30 30 30 29 28 28 27 25 24 23 20 18 17 17 16 16 16 16 17 17 18 19 21 22 24 26
42 41 41 41 40 39 38 36 34 34 33 34 35 35 34 33 33 32 31 32 31 31 30 29 27 26 24 22 20 18 17 16 15 16 16 16 15 16 17 19 20 22 24
43 43 42 42 41 41 41 40 39 38 37 37 37 37 36 35 35 34 34 33 33 32 32 31 29 28 26 25 22 20 19 18 17 16 15 16 15 15 16 18 18 20 22
44 44 44 43 43 43 43 43 42 42 42 41 40 40 39 39 39 37 37 36 34 33 33 32 32 30 29 26 24 23 22 20 19 17 17 17 17 17 17 18 18 20 21
45 45 46 46 46 46 46 45 44 45 45 45 44 43 42 42 42 41 40 38 38 36 35 34 34 33 31 29 27 25 24 23 21 20 19 18 18 18 18 18 19 19 20
47 48 48 48 48 48 49 48 48 47 47 46 45 45 45 44 43 43 42 41 40 39 38 37 36 35 34 32 30 28 27 25 24 22 21 20 19 18 17 17 17 18 19
51 52 51 51 50 51 51 51 51 51 50 49 48 47 47 47 47 45 46 44 42 41 40 39 38 37 36 34 33 31 29 28 26 25 23 22 21 19 18 17 17 18 19
52 53 53 53 52 52 52 53 54 54 53 53 52 51 51 51 50 48 48 48 47 45 43 42 40 39 38 37 36 35 33 31 28 27 25 24 23 21 20 19 19 18 19
52 53 53 53 53 53 52 53 54 56 56 56 55 55 54 54 53 52 51 50 50 49 47 45 43 42 41 39 39 38 35 33 31 29 27 25 24 23 22 20 19 19 19
51 52 52 52 52 52 52 53 54 56 57 57 57 58 57 57 57 56 55 54 53 52 51 49 46 45 43 42 41 40 38 36 34 32 30 28 26 24 23 22 21 20 20
51 51 50 50 51 51 52 52 53 54 56 57 58 58 59 59 59 59 59 58 57 55 54 52 50 48 46 44 43 42 39 38 36 34 33 31 28 27 25 24 23 22 21
49 48 48 48 49 50 51 51 52 53 55 56 57 58 59 60 60 61 61 60 61 59 57 55 53 50 49 47 44 44 42 39 38 36 35 33 31 29 27 26 24 23 22
44 43 42 43 44 45 46 48 49 50 52 53 55 56 58 58 60 61 61 61 62 61 58 57 56 54 51 50 48 46 44 42 40 38 36 35 33 31 29 27 26 24 22
39 38 38 38 39 40 42 43 45 47 48 49 50 52 55 57 58 59 61 61 61 61 60 58 57 56 54 52 51 48 45 44 43 41 39 37 34 32 30 28 27 26 24
35 34 33 33 34 36 37 39 40 42 43 44 45 48 50 53 55 56 58 59 60 61 61 60 58 56 55 54 52 50 49 47 44 41 39 38 36 34 32 30 28 26 25
32 30 29 28 28 30 32 34 36 37 38 40 41 43 46 47 49 52 54 56 56 58 60 60 58 57 55 54 53 50 49 48 45 42 39 37 36 35 34 31 29 27 26
29 27 26 25 24 25 27 28 30 33 34 35 37 40 41 43 45 47 49 51 52 54 56 57 57 55 53 53 53 52 49 48 47 44 41 39 36 35 34 32 30 29 27
Wind_Direction
295 294 294 294 293 287 282 282 277 271 270 268 266 265 264 263 262 261 257 254 253 251 248 246 247 248 247 247 246 245 245 244 244 242 239 237 237 236 234 232 230 229 229
293 291 291 292 292 289 283 278 274 273 272 268 265 264 263 262 260 259 257 253 253 251 248 245 247 247 245 246 246 245 245 244 244 244 240 238 237 236 234 233 232 231 230
293 291 290 291 290 289 285 279 273 272 269 268 265 265 264 261 259 258 255 252 251 248 245 244 244 244 244 244 245 245 244 243 243 244 243 239 239 238 236 235 234 233 232
291 292 289 288 288 288 284 279 275 271 267 264 262 263 262 261 258 256 254 250 249 246 243 242 242 243 243 243 244 244 243 242 243 245 245 241 241 240 238 236 236 236 235
289 290 288 286 285 285 283 278 274 270 265 261 260 262 261 260 258 253 250 248 247 242 240 241 241 244 243 243 243 242 242 241 242 244 244 241 241 243 241 236 236 237 237
289 287 287 284 281 281 281 277 271 265 264 261 260 260 259 257 256 250 245 244 243 240 237 239 242 245 244 242 241 239 239 239 242 243 244 241 241 242 241 238 237 238 238
288 286 285 282 280 279 280 276 270 265 262 259 257 257 257 254 252 246 242 242 240 239 237 236 238 242 240 238 236 236 237 240 242 243 245 245 244 243 240 240 239 239 239
285 285 283 280 279 278 276 276 270 262 257 257 255 256 254 253 249 245 242 241 240 236 236 234 236 238 237 234 234 235 238 240 241 241 242 244 244 243 242 243 242 242 241
283 283 281 279 277 276 274 274 268 261 257 256 256 254 252 252 249 245 242 240 239 236 235 233 233 235 234 234 235 237 239 239 239 239 242 245 244 243 244 244 243 242 242
284 282 279 278 277 275 274 272 267 264 259 254 254 253 250 249 246 244 241 238 238 237 235 234 233 233 230 232 233 235 237 237 237 238 240 243 244 245 244 245 245 244 243
282 280 278 276 275 273 271 270 266 262 260 256 252 252 249 247 244 242 240 238 237 236 235 234 233 232 230 231 230 231 234 236 236 237 239 242 245 247 247 247 248 246 244
282 280 277 275 273 271 269 267 263 259 258 256 253 249 247 246 242 240 238 237 235 234 234 232 232 230 232 232 229 230 231 235 238 240 241 245 248 251 251 251 251 250 247
282 279 277 274 272 270 268 265 262 258 255 254 252 249 246 247 242 239 238 237 235 235 234 233 232 231 231 230 230 231 232 234 237 240 244 247 251 255 256 256 255 253 252
282 280 277 275 273 270 267 264 261 259 256 254 252 249 247 245 242 241 239 236 236 235 234 233 232 231 229 229 229 231 233 234 237 241 244 248 253 257 259 258 256 255 255
283 281 279 275 271 268 266 263 260 258 255 253 252 249 246 242 241 239 237 236 236 235 234 234 232 232 230 229 230 232 234 235 239 242 246 250 253 256 260 260 259 258 257
284 282 279 275 272 268 265 262 259 257 254 251 250 248 244 242 241 241 238 237 236 236 235 234 234 233 231 231 231 233 235 236 239 242 246 250 252 255 258 260 260 260 260
283 281 278 275 271 268 265 261 258 255 253 251 249 247 244 242 241 241 239 238 237 237 235 234 234 233 233 232 233 234 235 236 238 241 245 249 250 253 256 259 262 263 263
284 281 278 274 271 267 264 260 257 254 252 250 248 246 244 242 240 239 239 238 237 236 236 234 233 232 233 233 234 234 234 236 238 240 244 247 249 251 254 257 261 264 266
286 282 278 274 270 266 263 260 256 254 251 249 247 245 243 242 241 239 238 237 236 235 235 235 234 232 232 233 234 234 234 235 237 239 242 245 248 250 253 256 260 264 266
286 282 278 274 269 265 261 259 256 253 251 249 246 244 242 241 241 239 237 236 236 235 235 235 234 234 232 232 234 235 235 235 236 237 240 243 246 248 250 254 258 262 265
288 282 278 273 269 264 260 258 256 253 250 248 246 244 243 241 240 238 237 236 236 235 235 235 235 234 233 233 234 235 235 235 236 237 239 241 243 246 249 253 256 260 262
292 286 279 274 269 263 258 255 254 251 249 246 245 243 242 240 239 239 238 237 236 236 235 234 234 235 234 234 235 235 235 236 236 236 237 239 241 244 247 250 254 257 261
295 289 282 275 269 264 259 255 252 249 246 245 243 242 241 240 239 238 237 236 236 236 235 235 234 235 235 234 235 236 236 236 236 236 237 239 240 242 245 247 251 255 259
299 294 287 279 270 264 259 254 250 246 244 243 241 240 240 239 239 238 237 236 235 235 235 235 235 234 235 236 236 237 236 236 235 236 236 237 239 241 243 246 249 252 255
303 299 293 284 275 266 259 253 248 244 243 242 240 238 238 237 237 237 237 236 234 234 233 233 233 233 234 234 235 235 236 237 237 237 237 236 238 240 241 244 248 250 253
309 305 299 289 280 270 260 253 247 243 241 239 237 236 236 235 234 235 235 235 234 233 232 231 231 231 232 233 233 234 235 236 237 237 237 236 237 238 240 242 245 248 251
Height
5858 5857 5856 5855 5854 5853 5853 5853 5853 5854 5855 5856 5857 5858 5859 5859 5860 5861 5862 5864 5866 5868 5870 5871 5873 5876 5877 5879 5881 5883 5885 5888 5890 5892 5894 5896 5898 5900 5902 5904 5906 5908 5909
5851 5850 5849 5848 5846 5845 5845 5846 5846 5847 5848 5849 5850 5851 5853 5854 5855 5856 5856 5859 5860 5862 5864 5866 5868 5870 5873 5875 5877 5879 5881 5883 5886 5888 5890 5892 5894 5897 5899 5901 5903 5905 5907
5844 5843 5842 5841 5839 5838 5838 5838 5838 5839 5841 5842 5843 5845 5846 5848 5849 5850 5851 5853 5855 5857 5859 5861 5863 5865 5868 5870 5872 5874 5876 5878 5881 5884 5886 5888 5890 5893 5895 5898 5900 5902 5904
5836 5835 5834 5833 5832 5831 5830 5830 5830 5831 5833 5834 5836 5837 5839 5841 5843 5844 5844 5845 5849 5852 5853 5856 5858 5860 5862 5864 5866 5868 5871 5873 5876 5879 5881 5883 5886 5888 5891 5894 5896 5899 5901
5829 5827 5826 5825 5824 5823 5822 5822 5822 5823 5824 5826 5828 5830 5832 5834 5836 5838 5840 5841 5844 5846 5849 5851 5853 5855 5857 5859 5861 5863 5866 5868 5871 5874 5876 5878 5881 5883 5886 5889 5892 5894 5897
5821 5820 5819 5817 5815 5815 5814 5814 5814 5814 5815 5818 5821 5823 5825 5827 5829 5831 5834 5836 5839 5840 5843 5846 5848 5851 5853 5854 5856 5859 5861 5864 5866 5868 5870 5873 5876 5878 5880 5883 5887 5890 5892
5812 5811 5810 5808 5807 5807 5807 5806 5806 5806 5808 5810 5813 5815 5818 5820 5822 5824 5828 5831 5833 5835 5838 5841 5844 5846 5848 5850 5852 5854 5856 5859 5861 5863 5865 5868 5870 5873 5875 5878 5881 5884 5887
5803 5802 5801 5799 5799 5799 5798 5798 5798 5799 5801 5803 5805 5807 5810 5813 5815 5818 5822 5825 5828 5831 5834 5836 5839 5841 5843 5845 5847 5849 5852 5854 5857 5859 5861 5863 5865 5867 5870 5872 5875 5878 5881
5794 5793 5793 5792 5791 5791 5791 5790 5790 5791 5793 5796 5798 5800 5802 5806 5809 5812 5815 5818 5821 5825 5827 5831 5834 5836 5839 5841 5843 5845 5848 5850 5852 5854 5856 5858 5860 5862 5864 5867 5869 5872 5875
5785 5784 5783 5783 5782 5782 5782 5782 5782 5783 5785 5788 5790 5792 5795 5798 5801 5804 5808 5811 5814 5818 5821 5825 5828 5830 5834 5837 5839 5841 5843 5846 5848 5850 5852 5854 5855 5857 5859 5861 5863 5866 5869
5774 5773 5773 5773 5772 5772 5773 5773 5773 5775 5776 5779 5782 5785 5787 5790 5793 5797 5800 5804 5807 5811 5815 5819 5822 5825 5828 5832 5835 5837 5839 5842 5844 5845 5847 5849 5851 5853 5854 5856 5858 5860 5863
5762 5761 5761 5761 5761 5762 5762 5763 5764 5765 5767 5769 5772 5775 5779 5782 5785 5789 5792 5796 5800 5804 5808 5812 5816 5819 5823 5826 5830 5832 5835 5838 5840 5842 5843 5845 5847 5849 5850 5852 5853 5855 5857
5749 5749 5748 5748 5749 5749 5750 5751 5752 5754 5756 5759 5762 5765 5769 5773 5776 5780 5784 5788 5792 5797 5800 5805 5809 5813 5817 5821 5823 5827 5830 5833 5835 5837 5839 5841 5843 5844 5846 5847 5849 5850 5852
5736 5735 5735 5735 5735 5736 5737 5738 5740 5742 5744 5747 5750 5754 5757 5761 5765 5770 5775 5780 5785 5789 5793 5797 5801 5805 5810 5814 5818 5821 5824 5827 5830 5832 5834 5836 5838 5840 5841 5842 5844 5845 5847
5721 5720 5720 5720 5720 5721 5722 5724 5726 5728 5731 5734 5738 5741 5745 5748 5754 5759 5765 5770 5775 5780 5785 5789 5793 5797 5802 5807 5811 5815 5818 5821 5824 5827 5829 5831 5833 5835 5836 5838 5839 5840 5841
5706 5704 5703 5703 5704 5705 5706 5708 5710 5713 5716 5720 5724 5728 5733 5737 5743 5748 5753 5759 5764 5770 5775 5780 5784 5789 5794 5799 5804 5808 5811 5815 5818 5821 5824 5826 5828 5830 5832 5833 5834 5835 5836
5690 5688 5686 5686 5686 5687 5688 5690 5693 5696 5700 5704 5709 5714 5719 5724 5730 5736 5741 5747 5753 5759 5764 5770 5775 5780 5785 5790 5796 5800 5804 5808 5811 5815 5818 5820 5822 5824 5826 5828 5829 5830 5831
5673 5670 5668 5667 5667 5668 5670 5672 5675 5678 5682 5687 5693 5698 5703 5709 5716 5722 5728 5734 5741 5747 5753 5760 5765 5770 5775 5781 5786 5791 5796 5801 5804 5808 5811 5814 5816 5819 5821 5822 5824 5825 5826
5655 5652 5650 5649 5649 5649 5651 5653 5656 5660 5664 5669 5675 5681 5687 5693 5700 5707 5714 5720 5727 5734 5740 5747 5754 5759 5765 5771 5776 5782 5787 5793 5797 5800 5804 5807 5810 5813 5815 5817 5819 5820 5821
5636 5633 5631 5630 5630 5630 5632 5634 5638 5642 5646 5651 5656 5663 5670 5676 5684 5691 5698 5705 5712 5720 5727 5735 5742 5748 5755 5760 5766 5772 5778 5783 5788 5793 5797 5801 5804 5807 5809 5811 5813 5814 5816
5616 5613 5612 5611 5611 5612 5614 5617 5620 5624 5628 5634 5639 5645 5652 5659 5667 5674 5682 5690 5698 5706 5714 5721 5729 5736 5743 5750 5756 5762 5768 5774 5780 5784 5789 5793 5797 5800 5803 5805 5807 5809 5810
5599 5595 5593 5592 5592 5594 5596 5599 5602 5606 5611 5617 5622 5628 5635 5642 5649 5658 5666 5674 5682 5691 5700 5708 5716 5723 5731 5739 5745 5752 5758 5765 5771 5776 5781 5785 5789 5793 5796 5799 5801 5803 5804
5584 5580 5578 5576 5576 5577 5579 5582 5585 5589 5595 5601 5607 5613 5619 5626 5633 5641 5650 5658 5667 5675 5685 5694 5702 5710 5718 5727 5734 5741 5748 5754 5761 5767 5772 5777 5782 5786 5789 5792 5794 5796 5798
5572 5568 5565 5563 5562 5563 5565 5567 5571 5575 5581 5587 5593 5599 5605 5611 5618 5626 5634 5643 5651 5661 5671 5680 5690 5697 5705 5713 5722 5730 5737 5744 5750 5757 5763 5769 5774 5778 5782 5785 5788 5790 5792
5562 5557 5554 5552 5551 5552 5553 5555 5558 5563 5568 5574 5580 5586 5592 5598 5605 5613 5621 5629 5638 5645 5654 5665 5674 5683 5692 5701 5709 5718 5726 5733 5741 5748 5754 5760 5765 5770 5774 5778 5781 5784 5786
5553 5549 5546 5543 5542 5542 5543 5545 5548 5553 5558 5564 5569 5575 5581 5587 5593 5600 5607 5615 5624 5632 5641 5651 5660 5669 5679 5688 5697 5706 5715 5722 5730 5738 5745 5751 5757 5762 5766 5770 5774 5777 5780